{"data":{"norad_id":57031,"epoch":"2026-09-21T21:27:20.500992Z","epoch_age_seconds":79972,"freshness":"FRESH","line1":"1 57031U 23085AD  26264.89398728  .00011718  00000+0  32136-3 0  9993","line2":"2 57031  97.5022  19.3207 0009079  94.8667 265.3614 15.37401328181629","mean_motion":15.37401328,"eccentricity":0.0009079,"inclination_deg":97.5022,"raan_deg":19.3207,"arg_perigee_deg":94.8667,"mean_anomaly_deg":265.3614,"bstar":0.00032136,"rev_number":18162,"period_min":93.664547686666,"perigee_km":447.59446336037,"apogee_km":459.99988943788,"semimajor_km":6831.9341763991,"source":"CELESTRAK","updated_at":"2026-09-22T09:00:25.999245Z"}}